Location: Township of South Roscoe
(37.9570°N, 100.1180°W)
Time: 10:21:22
(UTC+00:00)

NOAA 15 - Visible Passes

Search period start: 30 June 2022 00:00
Search period end: 10 July 2022 00:00
Orbit: 798 x 811 km, 98.6° (Epoch: 29 June)

Date Brightness Start Highest point End Pass type
(mag) Time Alt. Az. Time Alt. Az. Time Alt. Az.
30 Jun 7.2 02:57:46 10° SW 03:01:00 16° W 03:04:15 10° NW visible
01 Jul 6.6 02:31:00 10° SSW 02:35:31 28° W 02:40:04 10° NW visible
04 Jul 7.2 02:56:20 10° SW 02:59:40 17° W 03:03:01 10° NW visible
05 Jul 6.6 02:29:36 10° SSW 02:34:10 29° W 02:38:46 10° NW visible
08 Jul 7.2 02:54:53 10° SW 02:58:19 17° W 03:01:46 10° NW visible
09 Jul 6.5 02:28:13 10° SSW 02:32:49 30° W 02:37:29 10° NW visible
